Regional Weather Roundup
Issued by NWS

Home | Current Version | Previous Version | Graphics & Text | Print | Product List | Glossary On
Versions: 1 2 3 4 5 6 7 8 9 10 11 12 13 14 15 16 17 18 19 20 21 22 23 24 25 26 27 28 29 30 31 32 33 34 35 36 37 38 39 40 41 42 43 44 45 46 47 48 49 50
420
ASUS45 KBOU 281307
RWRCO

WEATHER ROUNDUP FOR COLORADO
NATIONAL WEATHER SERVICE DENVER/BOULDER CO
600 AM MST TUE FEB 28 2017

NOTE: "FAIR" INDICATES FEW OR NO CLOUDS BELOW 12000 FEET WITH NO
SIGNIFICANT WEATHER AND/OR OBSTRUCTIONS TO VISIBILITY.

COZ001>005-013-030-031-281400-
...NORTHWEST COLORADO...

CITY           SKY/WX    TMP DP  RH WIND       PRES   REMARKS
CRAIG          CLOUDY    15  10  80 SW5       29.76F WCI   8
HAYDEN         FAIR      16  10  79 SW3       29.74S
MEEKER         CLOUDY    21  15  78 NE7       29.72F WCI  12
MOUNT WERNER   NOT AVBL
STEAMBOAT SPGS CLOUDY    15  12  90 CALM      29.72F
WALDEN         NOT AVBL
$$

COZ006>008-011-281400-
...WEST CENTRAL VALLEYS...

CITY           SKY/WX    TMP DP  RH WIND       PRES   REMARKS
GRAND JUNCTION LGT SNOW  28  28 100 CALM      29.74R FOG
MONTROSE       FLURRIES  31  30  96 N9        29.72R WCI  23
EAGLE          SNOW      22  20  92 W7        29.73S VSB 1/2 WCI  13
RIFLE          LGT SNOW  27  25  92 S3        29.75S VSB 1
DELTA          LGT SNOW  34  32  93 W6        29.70S WCI  29
NUCLA          LGT SNOW  32  32 100 SE6       29.74S WCI  26
$$

COZ017>023-064>068-281400-
...SOUTHWEST COLORADO...

CITY           SKY/WX    TMP DP  RH WIND       PRES   REMARKS
DURANGO        LGT SNOW  31  29  92 W7        29.70S FOG     WCI  24
CORTEZ         LGT SNOW  32  32 100 S3        29.75S FOG
PAGOSA SPRINGS LGT SNOW  31  31 100 SW3       29.70F VSB 3/4
TELLURIDE      LGT SNOW  23  21  91 CALM      29.72F
WOLF CREEK PAS CLOUDY    18  18 100 SW22G33   29.69S WCI   0
$$

COZ009-010-012-014-032>034-037-058>063-281400-
...CENTRAL COLORADO...

CITY           SKY/WX    TMP DP  RH WIND       PRES   REMARKS
ASPEN          LGT SNOW  22  21  96 N8        29.65R VSB 3/4 WCI  12
BUENA VISTA    CLOUDY    27  26  94 CALM      29.66R
COPPER MTN     LGT SNOW  19  12  73 MISG      29.62R
BERTHOUD PASS  LGT SNOW  10   0  61 W12       29.60R WCI  -4
COTTONWOOD PAS LGT SNOW  27  21  80 SW12G17   29.65S WCI  16
GUNNISON       FLURRIES  27  23  85 SW8       29.68S WCI  19
KREMMLING      LGT SNOW  23  21  93 CALM      29.72R
LEADVILLE      LGT SNOW  18  15  88 SE3       29.61S FOG
MONARCH PASS   CLOUDY    14  10  85 W23G30    29.74R WCI  -5
SALIDA         CLOUDY    33  20  59 W12       29.73R WCI  25
SUNLIGHT       NOT AVBL
WILKERSON PASS FOG       18  14  86 SW12G20   29.64F VSB 1   WCI   5
$$

COZ069>075-281400-
...SAN LUIS VALLEY/SANGRE DE CRISTO MOUNTAINS...

CITY           SKY/WX    TMP DP  RH WIND       PRES   REMARKS
ALAMOSA        FLURRIES  32  31  96 S14       29.65F WCI  22
LA VETA PASS   LGT SNOW  27  23  86 S33G51    29.65F VSB 1   WCI   9
SAGUACHE       LGT SNOW  28  27  93 NW9       29.68R WCI  20
$$

COZ035-036-038>040-281400-
...NORTHERN COLORADO FRONT RANGE...

CITY           SKY/WX    TMP DP  RH WIND       PRES   REMARKS
DENVER INTL AP MOCLDY    23  16  74 S8        29.68S WCI  14
DMNS CITY PARK   N/A     29  17  60 E8        29.69S WCI  22
AURORA         MOCLDY    23  17  78 S8        29.68S WCI  14
FRONT RANGE AP NOT AVBL
ERIE MUNI ARPT FAIR      29  19  68 SE3       29.70S
BOULDER MUN AP MOCLDY    32  19  59 SE3       29.68S
CENTENNIAL     MOCLDY    25  18  74 S5        29.67S WCI  19
BROOMFIELD     MOCLDY    30  19  64 S7        29.68S WCI  23
FORT COLLINS   FAIR      28  21  75 CALM      29.72R
LONGMONT       NOT AVBL
$$

COZ041-046-047-076>085-087-088-281400-
...PIKES PEAK/PALMER DIVIDE AND SOUTHERN FOOTHILLS...

CITY           SKY/WX    TMP DP  RH WIND       PRES   REMARKS
COLO. SPRINGS  MOCLDY    28  10  46 N9        29.66F WCI  19
A. F. ACADEMY  CLOUDY    25  14  63 N8        29.65F WCI  16
SCHRIEVER AFB  FAIR      24  14  64 N14       29.66S WCI  12
ELLICOTT       MOCLDY   N/A N/A N/A E14G22    29.64R
FALCON         CLOUDY    24  10  55 N10       29.66S WCI  14
FORT CARSON    CLOUDY    29  15  55 N7        29.66R WCI  22
LIMON          FAIR     N/A N/A N/A N3        29.68F
MONUMENT HILL  FAIR      19  12  73 SE7       29.67S WCI  10
TRINIDAD       FAIR      44  26  49 SW25G33   29.59F
$$

COZ042>045-048>051-090-091-281400-
...NORTHEAST COLORADO...

CITY           SKY/WX    TMP DP  RH WIND       PRES   REMARKS
GREELEY ARPT   NOT AVBL
AKRON          FAIR      19  16  88 NW5       29.71R WCI  12
BURLINGTON     FAIR      24  19  81 N8        29.69S WCI  15
WRAY           NOT AVBL
STERLING       FAIR      21  18  86 CALM      29.72S
HOLYOKE        FAIR      27  19  74 W5        29.73S WCI  21
FORT MORGAN    FAIR      22  18  83 CALM      29.72R
$$

COZ086-089-092>099-281400-
...SOUTHEAST COLORADO...

CITY           SKY/WX    TMP DP  RH WIND       PRES   REMARKS
PUEBLO         FAIR      29  15  56 NW3       29.67S
LA JUNTA       FAIR      27  18  69 CALM      29.67S
LAMAR          FAIR      26  19  74 SE7       29.68R WCI  18
SPRINGFIELD      N/A     37  26  64 W3        29.66S
$$




USA.gov is the U.S. government's official web portal to all federal, state and local government web resources and services.